Time,TemperatureF,DewpointF,PressureIn,WindDirection,WindDirectionDegrees,WindSpeedMPH,WindSpeedGustMPH,Humidity,HourlyPrecipIn,Conditions,Clouds,dailyrainin,SolarRadiationWatts/m^2,SoftwareType,DateUTC
2013-12-21 00:01:00,54.5,53.4,30.14,ENE,60,0.0,0.0,96,0.00,,,0.00,0.0,meteohub,2013-12-21 05:01:00,
2013-12-21 00:02:00,54.5,53.4,30.14,ENE,61,0.0,0.0,96,0.00,,,0.00,0.0,meteohub,2013-12-21 05:02:00,
2013-12-21 00:07:00,54.5,53.4,30.13,ENE,61,0.0,0.0,96,0.00,,,0.00,0.0,meteohub,2013-12-21 05:07:00,
2013-12-21 00:12:00,54.7,53.6,30.13,ENE,60,0.0,0.0,96,0.00,,,0.00,0.0,meteohub,2013-12-21 05:12:00,
2013-12-21 00:17:00,54.7,53.6,30.13,ENE,61,0.0,0.0,96,0.00,,,0.00,0.0,meteohub,2013-12-21 05:17:00,
2013-12-21 00:22:00,54.7,53.6,30.14,ENE,60,0.0,0.0,96,0.00,,,0.00,0.0,meteohub,2013-12-21 05:22:00,
2013-12-21 00:27:00,54.7,53.6,30.13,ENE,60,0.0,0.0,96,0.00,,,0.00,0.0,meteohub,2013-12-21 05:27:00,
2013-12-21 00:32:00,54.7,53.6,30.13,ENE,60,0.0,0.0,96,0.00,,,0.00,0.0,meteohub,2013-12-21 05:32:00,
2013-12-21 00:37:00,54.7,53.6,30.13,ENE,61,0.0,0.0,96,0.00,,,0.00,0.0,meteohub,2013-12-21 05:37:00,
2013-12-21 00:42:00,54.7,53.6,30.13,ENE,61,0.0,0.0,96,0.00,,,0.00,0.0,meteohub,2013-12-21 05:42:00,
2013-12-21 00:47:00,54.5,53.4,30.13,ENE,61,0.0,0.0,96,0.00,,,0.00,0.0,meteohub,2013-12-21 05:47:00,
2013-12-21 00:51:00,54.5,53.4,30.13,ENE,60,0.0,0.0,96,0.00,,,0.00,0.0,meteohub,2013-12-21 05:51:00,
2013-12-21 00:56:00,54.5,53.6,30.13,ENE,60,0.0,0.0,97,0.00,,,0.00,0.0,meteohub,2013-12-21 05:56:00,
2013-12-21 01:01:00,54.7,53.6,30.13,ENE,61,0.0,0.0,96,0.00,,,0.00,0.0,meteohub,2013-12-21 06:01:00,
2013-12-21 01:07:00,54.5,53.6,30.13,ENE,60,0.0,0.0,97,0.00,,,0.00,0.0,meteohub,2013-12-21 06:07:00,
2013-12-21 01:12:00,54.5,53.6,30.13,ENE,61,0.0,0.0,97,0.00,,,0.00,0.0,meteohub,2013-12-21 06:12:00,
2013-12-21 01:17:00,54.3,53.4,30.13,ENE,61,0.0,0.0,97,0.00,,,0.00,0.0,meteohub,2013-12-21 06:17:00,
2013-12-21 01:22:00,54.3,53.4,30.12,ENE,60,0.0,0.0,97,0.00,,,0.00,0.0,meteohub,2013-12-21 06:22:00,
2013-12-21 01:27:00,54.3,53.4,30.12,ENE,60,0.0,0.0,97,0.00,,,0.00,0.0,meteohub,2013-12-21 06:27:00,
2013-12-21 01:32:00,54.3,53.4,30.12,ENE,61,0.0,0.0,97,0.00,,,0.00,0.0,meteohub,2013-12-21 06:32:00,
2013-12-21 01:33:00,54.3,53.4,30.12,ENE,61,0.0,0.0,97,0.00,,,0.00,0.0,meteohub,2013-12-21 06:33:00,
2013-12-21 01:38:00,54.1,53.2,30.12,ENE,60,0.0,0.0,97,0.00,,,0.00,0.0,meteohub,2013-12-21 06:38:00,
2013-12-21 01:43:00,54.1,53.2,30.12,ENE,61,0.0,0.0,97,0.00,,,0.00,0.0,meteohub,2013-12-21 06:43:00,
2013-12-21 01:48:00,54.1,53.2,30.12,ENE,60,0.0,0.0,97,0.00,,,0.00,0.0,meteohub,2013-12-21 06:48:00,
2013-12-21 01:53:00,54.1,53.2,30.12,ENE,61,0.0,0.0,97,0.00,,,0.00,0.0,meteohub,2013-12-21 06:53:00,
2013-12-21 01:59:00,54.1,53.2,30.12,ENE,61,0.0,0.0,97,0.00,,,0.00,0.0,meteohub,2013-12-21 06:59:00,
2013-12-21 02:03:00,54.0,53.1,30.12,ENE,61,0.0,0.0,97,0.00,,,0.00,0.0,meteohub,2013-12-21 07:03:00,
2013-12-21 02:08:00,54.0,53.1,30.12,ENE,61,0.0,0.0,97,0.00,,,0.00,0.0,meteohub,2013-12-21 07:08:00,
2013-12-21 02:13:00,54.0,53.1,30.12,ENE,60,0.0,0.0,97,0.00,,,0.00,0.0,meteohub,2013-12-21 07:13:00,
2013-12-21 02:19:00,53.8,52.9,30.12,ENE,61,0.0,0.0,97,0.00,,,0.00,0.0,meteohub,2013-12-21 07:19:00,
2013-12-21 02:23:00,53.8,52.9,30.12,ENE,61,0.0,0.0,97,0.00,,,0.00,0.0,meteohub,2013-12-21 07:23:00,
2013-12-21 02:28:00,53.8,52.9,30.12,ENE,61,0.0,0.0,97,0.00,,,0.00,0.0,meteohub,2013-12-21 07:28:00,
2013-12-21 02:33:00,53.8,52.9,30.12,ENE,60,0.0,0.0,97,0.00,,,0.00,0.0,meteohub,2013-12-21 07:33:00,
2013-12-21 02:39:00,53.8,52.9,30.12,ENE,61,0.0,0.0,97,0.00,,,0.00,0.0,meteohub,2013-12-21 07:39:00,
2013-12-21 02:44:00,53.8,52.9,30.12,ENE,60,0.0,0.0,97,0.00,,,0.00,0.0,meteohub,2013-12-21 07:44:00,
2013-12-21 02:49:00,53.8,52.9,30.12,ENE,61,0.0,0.0,97,0.00,,,0.00,0.0,meteohub,2013-12-21 07:49:00,
2013-12-21 02:54:00,53.6,52.7,30.12,ENE,60,0.0,0.0,97,0.00,,,0.00,0.0,meteohub,2013-12-21 07:54:00,
2013-12-21 02:59:00,53.6,52.7,30.12,ENE,60,0.0,0.0,97,0.00,,,0.00,0.0,meteohub,2013-12-21 07:59:00,
2013-12-21 03:04:00,53.4,52.5,30.11,ENE,61,0.0,0.0,97,0.00,,,0.00,0.0,meteohub,2013-12-21 08:04:00,
2013-12-21 03:09:00,53.6,52.7,30.11,ENE,61,0.0,0.0,97,0.00,,,0.00,0.0,meteohub,2013-12-21 08:09:00,
2013-12-21 03:14:00,53.6,52.7,30.11,ENE,61,0.0,0.0,97,0.00,,,0.00,0.0,meteohub,2013-12-21 08:14:00,
2013-12-21 03:19:00,53.6,52.7,30.11,ENE,61,0.0,0.0,97,0.00,,,0.00,0.0,meteohub,2013-12-21 08:19:00,
2013-12-21 03:24:00,53.4,52.5,30.12,ENE,61,0.0,0.0,97,0.00,,,0.00,0.0,meteohub,2013-12-21 08:24:00,
2013-12-21 03:29:00,53.4,52.5,30.11,ENE,60,0.0,0.0,97,0.00,,,0.00,0.0,meteohub,2013-12-21 08:29:00,
2013-12-21 03:34:00,53.4,52.5,30.11,ENE,60,0.0,0.0,97,0.00,,,0.00,0.0,meteohub,2013-12-21 08:34:00,
2013-12-21 03:39:00,53.2,52.3,30.11,ENE,61,0.0,0.0,97,0.00,,,0.00,0.0,meteohub,2013-12-21 08:39:00,
2013-12-21 03:44:00,53.4,52.5,30.12,ENE,60,0.0,0.0,97,0.00,,,0.00,0.0,meteohub,2013-12-21 08:44:00,
2013-12-21 03:49:00,53.4,52.5,30.11,ENE,61,0.0,0.0,97,0.00,,,0.00,0.0,meteohub,2013-12-21 08:49:00,
2013-12-21 03:54:00,53.4,52.5,30.11,ENE,61,0.0,0.0,97,0.00,,,0.00,0.0,meteohub,2013-12-21 08:54:00,
2013-12-21 03:59:00,53.2,52.3,30.11,ENE,61,0.0,0.0,97,0.00,,,0.00,0.0,meteohub,2013-12-21 08:59:00,
2013-12-21 04:04:00,53.2,52.3,30.11,ENE,60,0.0,0.0,97,0.00,,,0.00,0.0,meteohub,2013-12-21 09:04:00,
2013-12-21 04:09:00,53.1,52.2,30.11,ENE,61,0.0,0.0,97,0.00,,,0.00,0.0,meteohub,2013-12-21 09:09:00,
2013-12-21 04:14:00,53.1,52.2,30.11,ENE,60,0.0,0.0,97,0.00,,,0.00,0.0,meteohub,2013-12-21 09:14:00,
2013-12-21 04:19:00,53.2,52.3,30.11,ENE,60,0.0,0.0,97,0.00,,,0.00,0.0,meteohub,2013-12-21 09:19:00,
2013-12-21 04:24:00,53.2,52.3,30.11,ENE,61,0.0,0.0,97,0.00,,,0.00,0.0,meteohub,2013-12-21 09:24:00,
2013-12-21 04:29:00,53.2,52.3,30.11,ENE,60,0.0,0.0,97,0.00,,,0.00,0.0,meteohub,2013-12-21 09:29:00,
2013-12-21 04:34:00,53.2,52.3,30.11,ENE,61,0.0,0.0,97,0.00,,,0.00,0.0,meteohub,2013-12-21 09:34:00,
2013-12-21 04:39:00,53.2,52.3,30.11,ENE,61,0.0,0.0,97,0.00,,,0.00,0.0,meteohub,2013-12-21 09:39:00,
2013-12-21 04:44:00,53.2,52.3,30.11,ENE,60,0.0,0.0,97,0.00,,,0.00,0.0,meteohub,2013-12-21 09:44:00,
2013-12-21 04:49:00,53.2,52.3,30.12,ENE,61,0.0,0.0,97,0.00,,,0.00,0.0,meteohub,2013-12-21 09:49:00,
2013-12-21 04:54:00,53.2,52.3,30.11,ENE,61,0.0,0.0,97,0.00,,,0.00,0.0,meteohub,2013-12-21 09:54:00,
2013-12-21 04:59:00,53.2,52.3,30.12,ENE,61,0.0,0.0,97,0.00,,,0.00,0.0,meteohub,2013-12-21 09:59:00,
2013-12-21 05:04:00,53.2,52.3,30.12,ENE,60,0.0,0.0,97,0.00,,,0.00,0.0,meteohub,2013-12-21 10:04:00,
2013-12-21 05:09:00,53.2,52.3,30.12,ENE,61,0.0,0.0,97,0.00,,,0.00,0.0,meteohub,2013-12-21 10:09:00,
2013-12-21 05:14:00,53.2,52.3,30.12,ENE,61,0.0,0.0,97,0.00,,,0.00,0.0,meteohub,2013-12-21 10:14:00,
2013-12-21 05:19:00,53.1,52.2,30.12,ENE,60,0.0,0.0,97,0.00,,,0.00,0.0,meteohub,2013-12-21 10:19:00,
2013-12-21 05:24:00,53.1,52.2,30.12,ENE,61,0.0,0.0,97,0.00,,,0.00,0.0,meteohub,2013-12-21 10:24:00,
2013-12-21 05:29:00,52.9,52.0,30.12,ENE,60,0.0,0.0,97,0.00,,,0.00,0.0,meteohub,2013-12-21 10:29:00,
2013-12-21 05:34:00,52.7,51.8,30.12,ENE,61,0.0,0.0,97,0.00,,,0.00,0.0,meteohub,2013-12-21 10:34:00,
2013-12-21 05:39:00,52.7,51.8,30.12,ENE,61,0.0,0.0,97,0.00,,,0.00,0.0,meteohub,2013-12-21 10:39:00,
2013-12-21 05:44:00,52.7,51.8,30.12,ENE,61,0.0,0.0,97,0.00,,,0.00,0.0,meteohub,2013-12-21 10:44:00,
2013-12-21 05:49:00,52.9,52.0,30.12,ENE,60,0.0,0.0,97,0.00,,,0.00,0.0,meteohub,2013-12-21 10:49:00,
2013-12-21 05:54:00,52.9,52.0,30.12,ENE,61,0.0,0.0,97,0.00,,,0.00,0.0,meteohub,2013-12-21 10:54:00,
2013-12-21 05:59:00,52.9,52.0,30.12,ENE,60,0.0,0.0,97,0.00,,,0.00,0.0,meteohub,2013-12-21 10:59:00,
2013-12-21 06:04:00,52.9,52.0,30.12,ENE,61,0.0,0.0,97,0.00,,,0.00,0.0,meteohub,2013-12-21 11:04:00,
2013-12-21 06:09:00,53.1,52.2,30.12,ENE,60,0.0,0.0,97,0.00,,,0.00,0.0,meteohub,2013-12-21 11:09:00,
2013-12-21 06:14:00,53.1,52.2,30.12,ENE,60,0.0,0.0,97,0.00,,,0.00,0.0,meteohub,2013-12-21 11:14:00,
2013-12-21 06:19:00,53.1,52.2,30.12,ENE,61,0.0,0.0,97,0.00,,,0.00,0.0,meteohub,2013-12-21 11:19:00,
2013-12-21 06:24:00,53.1,52.2,30.12,ENE,61,0.0,0.0,97,0.00,,,0.00,0.0,meteohub,2013-12-21 11:24:00,
2013-12-21 06:29:00,53.2,52.3,30.12,ENE,60,0.0,0.0,97,0.00,,,0.00,0.0,meteohub,2013-12-21 11:29:00,
2013-12-21 06:34:00,53.2,52.3,30.12,ENE,60,0.0,0.0,97,0.00,,,0.00,0.0,meteohub,2013-12-21 11:34:00,
2013-12-21 06:39:00,53.2,52.3,30.12,ENE,60,0.0,0.0,97,0.00,,,0.00,0.0,meteohub,2013-12-21 11:39:00,
2013-12-21 06:44:00,53.1,52.2,30.12,ENE,61,0.0,0.0,97,0.00,,,0.00,0.0,meteohub,2013-12-21 11:44:00,
2013-12-21 06:49:00,53.1,52.2,30.12,ENE,60,0.0,0.0,97,0.00,,,0.00,0.0,meteohub,2013-12-21 11:49:00,
2013-12-21 06:54:00,53.2,52.3,30.12,ENE,61,0.0,0.0,97,0.00,,,0.00,0.0,meteohub,2013-12-21 11:54:00,
2013-12-21 06:59:00,53.2,52.3,30.12,ENE,60,0.0,0.0,97,0.00,,,0.00,0.0,meteohub,2013-12-21 11:59:00,
2013-12-21 07:04:00,53.2,52.3,30.12,ENE,61,0.0,0.0,97,0.00,,,0.00,0.0,meteohub,2013-12-21 12:04:00,
2013-12-21 07:09:00,53.1,52.2,30.12,ENE,61,0.0,0.0,97,0.00,,,0.00,0.0,meteohub,2013-12-21 12:09:00,
2013-12-21 07:14:00,53.1,52.2,30.12,ENE,60,0.0,0.0,97,0.00,,,0.00,0.0,meteohub,2013-12-21 12:14:00,
2013-12-21 07:19:00,53.1,52.2,30.12,ENE,60,0.0,0.0,97,0.00,,,0.00,0.0,meteohub,2013-12-21 12:19:00,
2013-12-21 07:24:00,53.2,52.3,30.12,ENE,61,0.0,0.0,97,0.00,,,0.00,0.0,meteohub,2013-12-21 12:24:00,
2013-12-21 07:29:00,53.2,52.3,30.12,ENE,61,0.0,0.0,97,0.00,,,0.00,5.0,meteohub,2013-12-21 12:29:00,
2013-12-21 07:34:00,53.4,52.5,30.12,ENE,61,0.0,0.0,97,0.00,,,0.00,7.0,meteohub,2013-12-21 12:34:00,
2013-12-21 07:39:00,53.4,52.5,30.12,ENE,60,0.0,0.0,97,0.00,,,0.00,11.0,meteohub,2013-12-21 12:39:00,
2013-12-21 07:44:00,53.6,52.7,30.12,ENE,60,0.0,0.0,97,0.00,,,0.00,16.0,meteohub,2013-12-21 12:44:00,
2013-12-21 07:49:00,53.8,52.9,30.12,ENE,61,0.0,0.0,97,0.00,,,0.00,21.0,meteohub,2013-12-21 12:49:00,
2013-12-21 07:54:00,54.0,53.1,30.12,ENE,61,0.0,0.0,97,0.00,,,0.00,25.0,meteohub,2013-12-21 12:54:00,
2013-12-21 07:59:00,54.1,53.6,30.12,ENE,61,0.0,0.0,98,0.00,,,0.00,28.0,meteohub,2013-12-21 12:59:00,
2013-12-21 08:04:00,54.3,53.4,30.12,ENE,61,0.0,0.0,97,0.00,,,0.00,32.0,meteohub,2013-12-21 13:04:00,
2013-12-21 08:09:00,54.7,53.8,30.12,ENE,61,0.0,0.0,97,0.00,,,0.00,37.0,meteohub,2013-12-21 13:09:00,
2013-12-21 08:14:00,55.0,54.1,30.13,ENE,60,0.0,0.0,97,0.00,,,0.00,83.0,meteohub,2013-12-21 13:14:00,
2013-12-21 08:19:00,55.6,55.0,30.13,ENE,61,0.0,0.0,98,0.00,,,0.00,90.0,meteohub,2013-12-21 13:19:00,
2013-12-21 08:24:00,56.5,55.9,30.12,ENE,60,0.0,0.0,98,0.00,,,0.00,134.0,meteohub,2013-12-21 13:24:00,
2013-12-21 08:29:00,57.4,56.8,30.12,ENE,61,0.0,0.0,98,0.00,,,0.00,155.0,meteohub,2013-12-21 13:29:00,
2013-12-21 08:34:00,58.3,57.7,30.12,ENE,61,0.0,0.0,98,0.00,,,0.00,171.0,meteohub,2013-12-21 13:34:00,
2013-12-21 08:39:00,59.2,58.6,30.12,ENE,60,0.0,0.0,98,0.00,,,0.00,181.0,meteohub,2013-12-21 13:39:00,
2013-12-21 08:44:00,60.4,59.9,30.12,ENE,61,0.0,0.0,98,0.00,,,0.00,192.0,meteohub,2013-12-21 13:44:00,
2013-12-21 08:49:00,61.5,61.0,30.13,ENE,61,0.0,0.0,98,0.00,,,0.00,185.0,meteohub,2013-12-21 13:49:00,
2013-12-21 08:54:00,62.6,62.1,30.13,ENE,60,0.0,2.0,98,0.00,,,0.00,197.0,meteohub,2013-12-21 13:54:00,
2013-12-21 08:59:00,63.3,62.8,30.13,ENE,60,0.0,2.0,98,0.00,,,0.00,185.0,meteohub,2013-12-21 13:59:00,
2013-12-21 09:04:00,63.9,63.3,30.13,ENE,65,0.0,2.0,98,0.00,,,0.00,248.0,meteohub,2013-12-21 14:04:00,
2013-12-21 09:09:00,64.6,64.0,30.13,ENE,68,0.0,2.0,98,0.00,,,0.00,265.0,meteohub,2013-12-21 14:09:00,
2013-12-21 09:14:00,65.1,64.6,30.13,South,170,0.0,2.0,98,0.00,,,0.00,281.0,meteohub,2013-12-21 14:14:00,
2013-12-21 09:19:00,65.8,65.3,30.13,SSE,155,0.0,2.0,98,0.00,,,0.00,294.0,meteohub,2013-12-21 14:19:00,
2013-12-21 09:24:00,66.6,66.0,30.13,SSE,155,1.0,4.0,98,0.00,,,0.00,318.0,meteohub,2013-12-21 14:24:00,
2013-12-21 09:29:00,67.5,66.9,30.13,South,177,0.0,4.0,98,0.00,,,0.00,320.0,meteohub,2013-12-21 14:29:00,
2013-12-21 09:34:00,68.2,67.3,30.13,SSW,203,1.0,5.0,97,0.00,,,0.00,350.0,meteohub,2013-12-21 14:34:00,
2013-12-21 09:39:00,68.9,67.6,30.13,SSE,165,0.0,6.0,96,0.00,,,0.00,359.0,meteohub,2013-12-21 14:39:00,
2013-12-21 09:44:00,69.8,68.4,30.13,East,99,5.0,6.0,95,0.00,,,0.00,294.0,meteohub,2013-12-21 14:44:00,
2013-12-21 09:49:00,70.5,68.0,30.13,South,175,2.0,6.0,92,0.00,,,0.00,387.0,meteohub,2013-12-21 14:49:00,
2013-12-21 09:54:00,71.2,68.5,30.13,SE,126,0.0,7.0,91,0.00,,,0.00,392.0,meteohub,2013-12-21 14:54:00,
2013-12-21 09:59:00,72.0,68.2,30.13,South,171,2.0,7.0,88,0.00,,,0.00,404.0,meteohub,2013-12-21 14:59:00,
2013-12-21 10:04:00,72.5,68.4,30.13,SSW,194,0.0,7.0,87,0.00,,,0.00,415.0,meteohub,2013-12-21 15:04:00,
2013-12-21 10:09:00,72.9,68.0,30.13,SSE,165,1.0,6.0,85,0.00,,,0.00,427.0,meteohub,2013-12-21 15:09:00,
2013-12-21 10:14:00,73.0,68.2,30.13,SE,140,2.0,10.0,85,0.00,,,0.00,443.0,meteohub,2013-12-21 15:14:00,
2013-12-21 10:19:00,73.4,68.2,30.13,ESE,104,1.0,10.0,84,0.00,,,0.00,450.0,meteohub,2013-12-21 15:19:00,
2013-12-21 10:24:00,73.6,68.4,30.13,SE,142,5.0,10.0,84,0.00,,,0.00,454.0,meteohub,2013-12-21 15:24:00,
2013-12-21 10:29:00,73.8,68.4,30.13,SSE,152,5.0,12.0,83,0.00,,,0.00,457.0,meteohub,2013-12-21 15:29:00,
2013-12-21 10:34:00,73.9,68.4,30.12,South,190,0.0,13.0,83,0.00,,,0.00,476.0,meteohub,2013-12-21 15:34:00,
2013-12-21 10:39:00,74.1,68.5,30.12,SSE,150,3.0,13.0,83,0.00,,,0.00,483.0,meteohub,2013-12-21 15:39:00,
2013-12-21 10:44:00,74.7,68.7,30.12,SSE,165,0.0,13.0,82,0.00,,,0.00,492.0,meteohub,2013-12-21 15:44:00,
2013-12-21 10:49:00,74.8,68.9,30.12,SE,146,1.0,11.0,82,0.00,,,0.00,504.0,meteohub,2013-12-21 15:49:00,
2013-12-21 10:54:00,74.8,68.5,30.12,SSW,194,5.0,11.0,81,0.00,,,0.00,510.0,meteohub,2013-12-21 15:54:00,
2013-12-21 10:59:00,75.0,68.7,30.12,SSE,168,9.0,11.0,81,0.00,,,0.00,517.0,meteohub,2013-12-21 15:59:00,
2013-12-21 11:04:00,74.8,68.5,30.12,SSE,148,4.0,12.0,81,0.00,,,0.00,526.0,meteohub,2013-12-21 16:04:00,
2013-12-21 11:09:00,75.0,68.7,30.12,SSW,212,8.0,12.0,81,0.00,,,0.00,529.0,meteohub,2013-12-21 16:09:00,
2013-12-21 11:14:00,75.6,68.9,30.11,SW,217,7.0,12.0,80,0.00,,,0.00,540.0,meteohub,2013-12-21 16:14:00,
2013-12-21 11:19:00,75.9,68.9,30.11,SW,217,1.0,11.0,79,0.00,,,0.00,547.0,meteohub,2013-12-21 16:19:00,
2013-12-21 11:24:00,76.5,69.1,30.11,SSW,202,4.0,11.0,78,0.00,,,0.00,552.0,meteohub,2013-12-21 16:24:00,
2013-12-21 11:29:00,76.3,68.9,30.10,SSW,212,2.0,10.0,78,0.00,,,0.00,557.0,meteohub,2013-12-21 16:29:00,
2013-12-21 11:34:00,76.5,68.7,30.10,SSE,167,0.0,13.0,77,0.00,,,0.00,564.0,meteohub,2013-12-21 16:34:00,
2013-12-21 11:39:00,76.8,69.1,30.10,ESE,119,2.0,13.0,77,0.00,,,0.00,575.0,meteohub,2013-12-21 16:39:00,
2013-12-21 11:44:00,77.0,68.9,30.09,South,179,1.0,13.0,76,0.00,,,0.00,555.0,meteohub,2013-12-21 16:44:00,
2013-12-21 11:49:00,77.0,68.9,30.09,SSE,168,2.0,13.0,76,0.00,,,0.00,536.0,meteohub,2013-12-21 16:49:00,
2013-12-21 11:54:00,77.4,69.6,30.09,SSE,165,3.0,13.0,77,0.00,,,0.00,529.0,meteohub,2013-12-21 16:54:00,
2013-12-21 11:59:00,77.4,69.6,30.09,SE,146,3.0,12.0,77,0.00,,,0.00,512.0,meteohub,2013-12-21 16:59:00,
2013-12-21 12:04:00,77.4,69.6,30.08,SSE,152,7.0,12.0,77,0.00,,,0.00,548.0,meteohub,2013-12-21 17:04:00,
2013-12-21 12:09:00,77.2,69.4,30.08,SE,140,7.0,11.0,77,0.00,,,0.00,578.0,meteohub,2013-12-21 17:09:00,
2013-12-21 12:14:00,77.2,69.8,30.08,ESE,111,8.0,14.0,78,0.00,,,0.00,577.0,meteohub,2013-12-21 17:14:00,
2013-12-21 12:19:00,77.4,70.0,30.08,ESE,123,2.0,14.0,78,0.00,,,0.00,587.0,meteohub,2013-12-21 17:19:00,
2013-12-21 12:24:00,77.5,70.2,30.07,ESE,114,4.0,14.0,78,0.00,,,0.00,580.0,meteohub,2013-12-21 17:24:00,
2013-12-21 12:29:00,77.5,70.5,30.07,South,182,4.0,13.0,79,0.00,,,0.00,571.0,meteohub,2013-12-21 17:29:00,
2013-12-21 12:34:00,77.5,70.2,30.07,SSE,157,1.0,13.0,78,0.00,,,0.00,529.0,meteohub,2013-12-21 17:34:00,
2013-12-21 12:39:00,77.4,69.6,30.06,South,169,5.0,13.0,77,0.00,,,0.00,547.0,meteohub,2013-12-21 17:39:00,
2013-12-21 12:44:00,77.2,69.8,30.06,SSE,164,2.0,12.0,78,0.00,,,0.00,515.0,meteohub,2013-12-21 17:44:00,
2013-12-21 12:49:00,77.2,69.4,30.06,SSE,163,1.0,14.0,77,0.00,,,0.00,520.0,meteohub,2013-12-21 17:49:00,
2013-12-21 12:54:00,77.0,69.6,30.06,SSE,168,7.0,15.0,78,0.00,,,0.00,534.0,meteohub,2013-12-21 17:54:00,
2013-12-21 12:59:00,77.0,69.6,30.05,SSE,161,8.0,16.0,78,0.00,,,0.00,506.0,meteohub,2013-12-21 17:59:00,
2013-12-21 13:04:00,76.8,69.1,30.05,SW,222,9.0,16.0,77,0.00,,,0.00,441.0,meteohub,2013-12-21 18:04:00,
2013-12-21 13:09:00,76.8,69.1,30.05,SSW,206,7.0,16.0,77,0.00,,,0.00,459.0,meteohub,2013-12-21 18:09:00,
2013-12-21 13:14:00,77.0,69.3,30.05,SW,229,1.0,16.0,77,0.00,,,0.00,504.0,meteohub,2013-12-21 18:14:00,
2013-12-21 13:19:00,76.6,69.3,30.05,SSW,194,5.0,15.0,78,0.00,,,0.00,512.0,meteohub,2013-12-21 18:19:00,
2013-12-21 13:24:00,76.6,69.3,30.05,SSE,156,7.0,16.0,78,0.00,,,0.00,534.0,meteohub,2013-12-21 18:24:00,
2013-12-21 13:29:00,76.8,69.1,30.05,SSE,167,3.0,16.0,77,0.00,,,0.00,513.0,meteohub,2013-12-21 18:29:00,
2013-12-21 13:34:00,76.8,69.1,30.04,SSW,199,7.0,15.0,77,0.00,,,0.00,506.0,meteohub,2013-12-21 18:34:00,
2013-12-21 13:39:00,76.8,69.1,30.04,SSW,197,7.0,15.0,77,0.00,,,0.00,519.0,meteohub,2013-12-21 18:39:00,
2013-12-21 13:44:00,77.0,69.3,30.04,SE,144,5.0,15.0,77,0.00,,,0.00,443.0,meteohub,2013-12-21 18:44:00,
2013-12-21 13:49:00,77.4,68.9,30.04,South,186,3.0,14.0,75,0.00,,,0.00,519.0,meteohub,2013-12-21 18:49:00,
2013-12-21 13:54:00,77.2,68.2,30.03,South,188,1.0,14.0,74,0.00,,,0.00,297.0,meteohub,2013-12-21 18:54:00,
2013-12-21 13:59:00,77.0,68.5,30.04,ESE,109,3.0,14.0,75,0.00,,,0.00,422.0,meteohub,2013-12-21 18:59:00,
2013-12-21 14:04:00,77.0,68.9,30.03,SSW,203,1.0,13.0,76,0.00,,,0.00,480.0,meteohub,2013-12-21 19:04:00,
2013-12-21 14:09:00,77.4,69.3,30.03,SE,128,5.0,12.0,76,0.00,,,0.00,452.0,meteohub,2013-12-21 19:09:00,
2013-12-21 14:14:00,77.5,68.9,30.03,SSW,211,9.0,12.0,75,0.00,,,0.00,438.0,meteohub,2013-12-21 19:14:00,
2013-12-21 14:19:00,77.7,69.1,30.03,SE,129,5.0,11.0,75,0.00,,,0.00,418.0,meteohub,2013-12-21 19:19:00,
2013-12-21 14:24:00,77.7,68.7,30.03,South,182,2.0,11.0,74,0.00,,,0.00,415.0,meteohub,2013-12-21 19:24:00,
2013-12-21 14:29:00,77.5,68.5,30.02,SW,225,11.0,13.0,74,0.00,,,0.00,410.0,meteohub,2013-12-21 19:29:00,
2013-12-21 14:34:00,77.2,68.7,30.03,South,188,7.0,13.0,75,0.00,,,0.00,369.0,meteohub,2013-12-21 19:34:00,
2013-12-21 14:39:00,77.4,68.9,30.03,South,190,6.0,14.0,75,0.00,,,0.00,383.0,meteohub,2013-12-21 19:39:00,
2013-12-21 14:44:00,77.4,68.9,30.02,SE,145,0.0,14.0,75,0.00,,,0.00,359.0,meteohub,2013-12-21 19:44:00,
2013-12-21 14:49:00,77.5,68.5,30.02,SSW,195,3.0,14.0,74,0.00,,,0.00,301.0,meteohub,2013-12-21 19:49:00,
2013-12-21 14:54:00,77.7,68.7,30.02,SSW,200,0.0,12.0,74,0.00,,,0.00,274.0,meteohub,2013-12-21 19:54:00,
2013-12-21 14:59:00,77.7,69.1,30.02,SE,127,4.0,12.0,75,0.00,,,0.00,225.0,meteohub,2013-12-21 19:59:00,
2013-12-21 15:04:00,77.5,68.5,30.02,SSE,162,1.0,9.0,74,0.00,,,0.00,287.0,meteohub,2013-12-21 20:04:00,
2013-12-21 15:09:00,77.4,68.9,30.02,South,176,1.0,14.0,75,0.00,,,0.00,229.0,meteohub,2013-12-21 20:09:00,
2013-12-21 15:14:00,77.2,68.7,30.02,SSW,192,3.0,14.0,75,0.00,,,0.00,186.0,meteohub,2013-12-21 20:14:00,
2013-12-21 15:19:00,76.8,68.7,30.02,SE,128,2.0,14.0,76,0.00,,,0.00,183.0,meteohub,2013-12-21 20:19:00,
2013-12-21 15:24:00,76.6,68.5,30.02,ESE,122,2.0,13.0,76,0.00,,,0.00,116.0,meteohub,2013-12-21 20:24:00,
2013-12-21 15:29:00,76.5,68.7,30.02,SW,224,4.0,13.0,77,0.00,,,0.00,146.0,meteohub,2013-12-21 20:29:00,
2013-12-21 15:34:00,75.9,68.5,30.02,SSW,206,8.0,13.0,78,0.00,,,0.00,144.0,meteohub,2013-12-21 20:34:00,
2013-12-21 15:39:00,75.7,68.7,30.02,SSW,208,4.0,10.0,79,0.00,,,0.00,181.0,meteohub,2013-12-21 20:39:00,
2013-12-21 15:44:00,75.4,68.7,30.02,SSE,160,11.0,11.0,80,0.00,,,0.00,132.0,meteohub,2013-12-21 20:44:00,
2013-12-21 15:49:00,75.2,68.5,30.02,ESE,117,12.0,17.0,80,0.00,,,0.00,100.0,meteohub,2013-12-21 20:49:00,
2013-12-21 15:54:00,75.2,68.9,30.02,SSW,199,5.0,17.0,81,0.00,,,0.00,190.0,meteohub,2013-12-21 20:54:00,
2013-12-21 15:59:00,75.0,68.7,30.02,SSW,194,10.0,17.0,81,0.00,,,0.00,91.0,meteohub,2013-12-21 20:59:00,
2013-12-21 16:04:00,74.8,68.5,30.02,South,188,7.0,12.0,81,0.00,,,0.00,65.0,meteohub,2013-12-21 21:04:00,
2013-12-21 16:09:00,74.7,68.4,30.03,SW,215,9.0,12.0,81,0.00,,,0.00,54.0,meteohub,2013-12-21 21:09:00,
2013-12-21 16:14:00,74.5,68.5,30.03,SE,138,5.0,12.0,82,0.00,,,0.00,42.0,meteohub,2013-12-21 21:14:00,
2013-12-21 16:19:00,74.3,68.4,30.03,SE,136,1.0,11.0,82,0.00,,,0.00,86.0,meteohub,2013-12-21 21:19:00,
2013-12-21 16:24:00,74.1,68.5,30.03,SSE,155,4.0,11.0,83,0.00,,,0.00,49.0,meteohub,2013-12-21 21:24:00,
2013-12-21 16:29:00,73.8,68.4,30.03,SSW,196,2.0,11.0,83,0.00,,,0.00,32.0,meteohub,2013-12-21 21:29:00,
2013-12-21 16:34:00,73.6,68.4,30.04,ESE,111,2.0,10.0,84,0.00,,,0.00,35.0,meteohub,2013-12-21 21:34:00,
2013-12-21 16:39:00,73.0,68.2,30.04,East,82,2.0,11.0,85,0.00,,,0.00,42.0,meteohub,2013-12-21 21:39:00,
2013-12-21 16:44:00,72.9,68.0,30.04,SE,143,4.0,14.0,85,0.00,,,0.00,30.0,meteohub,2013-12-21 21:44:00,
2013-12-21 16:49:00,72.7,68.2,30.04,SSE,153,0.0,14.0,86,0.00,,,0.00,35.0,meteohub,2013-12-21 21:49:00,
2013-12-21 16:54:00,72.3,67.8,30.04,SE,139,4.0,14.0,86,0.00,,,0.00,23.0,meteohub,2013-12-21 21:54:00,
2013-12-21 16:59:00,72.1,67.6,30.04,East,88,0.0,12.0,86,0.00,,,0.00,19.0,meteohub,2013-12-21 21:59:00,
2013-12-21 17:04:00,72.0,67.8,30.04,SSE,165,4.0,12.0,87,0.00,,,0.00,16.0,meteohub,2013-12-21 22:04:00,
2013-12-21 17:09:00,71.8,67.6,30.05,SSE,159,7.0,12.0,87,0.00,,,0.00,14.0,meteohub,2013-12-21 22:09:00,
2013-12-21 17:14:00,71.6,67.5,30.04,SSW,209,2.0,12.0,87,0.00,,,0.00,11.0,meteohub,2013-12-21 22:14:00,
2013-12-21 17:19:00,71.2,67.5,30.05,East,101,6.0,12.0,88,0.00,,,0.00,7.0,meteohub,2013-12-21 22:19:00,
2013-12-21 17:24:00,71.1,67.3,30.05,SSE,164,6.0,12.0,88,0.00,,,0.00,5.0,meteohub,2013-12-21 22:24:00,
2013-12-21 17:29:00,70.9,67.1,30.05,South,191,0.0,12.0,88,0.00,,,0.00,0.0,meteohub,2013-12-21 22:29:00,
2013-12-21 17:34:00,70.7,66.9,30.05,SSW,192,2.0,7.0,88,0.00,,,0.00,0.0,meteohub,2013-12-21 22:34:00,
2013-12-21 17:39:00,70.5,67.1,30.05,ESE,119,1.0,6.0,89,0.00,,,0.00,0.0,meteohub,2013-12-21 22:39:00,
2013-12-21 17:44:00,70.3,66.9,30.05,SE,125,0.0,9.0,89,0.00,,,0.00,0.0,meteohub,2013-12-21 22:44:00,
2013-12-21 17:49:00,70.0,66.6,30.05,ESE,111,4.0,9.0,89,0.00,,,0.00,0.0,meteohub,2013-12-21 22:49:00,
2013-12-21 17:54:00,69.8,66.7,30.05,SE,125,0.0,9.0,90,0.00,,,0.00,0.0,meteohub,2013-12-21 22:54:00,
2013-12-21 17:59:00,69.6,66.6,30.05,South,190,2.0,8.0,90,0.00,,,0.00,0.0,meteohub,2013-12-21 22:59:00,
2013-12-21 18:04:00,69.4,66.4,30.06,SSE,150,3.0,8.0,90,0.00,,,0.00,0.0,meteohub,2013-12-21 23:04:00,
2013-12-21 18:09:00,69.4,66.7,30.05,SE,126,0.0,6.0,91,0.00,,,0.00,0.0,meteohub,2013-12-21 23:09:00,
2013-12-21 18:14:00,69.3,66.6,30.06,SSE,157,0.0,7.0,91,0.00,,,0.00,0.0,meteohub,2013-12-21 23:14:00,
2013-12-21 18:19:00,69.3,66.6,30.06,SSE,153,0.0,7.0,91,0.00,,,0.00,0.0,meteohub,2013-12-21 23:19:00,
2013-12-21 18:24:00,69.3,66.9,30.06,SSE,149,0.0,7.0,92,0.00,,,0.00,0.0,meteohub,2013-12-21 23:24:00,
2013-12-21 18:29:00,69.3,66.9,30.06,East,101,2.0,10.0,92,0.00,,,0.00,0.0,meteohub,2013-12-21 23:29:00,
2013-12-21 18:34:00,69.3,66.9,30.06,South,175,1.0,10.0,92,0.00,,,0.00,0.0,meteohub,2013-12-21 23:34:00,
2013-12-21 18:39:00,69.3,66.9,30.06,South,172,5.0,10.0,92,0.00,,,0.00,0.0,meteohub,2013-12-21 23:39:00,
2013-12-21 18:44:00,69.3,66.9,30.06,SSE,163,2.0,7.0,92,0.00,,,0.00,0.0,meteohub,2013-12-21 23:44:00,
2013-12-21 18:49:00,69.1,66.7,30.06,SE,132,1.0,7.0,92,0.00,,,0.00,0.0,meteohub,2013-12-21 23:49:00,
2013-12-21 18:54:00,68.9,66.6,30.06,South,176,0.0,10.0,92,0.00,,,0.00,0.0,meteohub,2013-12-21 23:54:00,
2013-12-21 18:59:00,68.7,66.4,30.06,SSE,160,0.0,10.0,92,0.00,,,0.00,0.0,meteohub,2013-12-21 23:59:00,
2013-12-21 19:04:00,68.5,66.2,30.06,SSE,157,1.0,9.0,92,0.00,,,0.00,0.0,meteohub,2013-12-22 00:04:00,
2013-12-21 19:09:00,68.4,66.0,30.06,SSE,159,2.0,9.0,92,0.00,,,0.00,0.0,meteohub,2013-12-22 00:09:00,
2013-12-21 19:14:00,68.2,66.0,30.06,South,188,1.0,9.0,93,0.00,,,0.00,0.0,meteohub,2013-12-22 00:14:00,
2013-12-21 19:19:00,68.2,66.0,30.06,SE,134,0.0,6.0,93,0.00,,,0.00,0.0,meteohub,2013-12-22 00:19:00,
2013-12-21 19:25:00,68.0,65.8,30.06,ESE,109,1.0,6.0,93,0.00,,,0.00,0.0,meteohub,2013-12-22 00:25:00,
2013-12-21 19:30:00,68.0,65.8,30.06,SSE,156,0.0,6.0,93,0.00,,,0.00,0.0,meteohub,2013-12-22 00:30:00,
2013-12-21 19:35:00,68.2,66.4,30.06,SSE,149,0.0,5.0,94,0.00,,,0.00,0.0,meteohub,2013-12-22 00:35:00,
2013-12-21 19:40:00,68.2,66.4,30.06,South,171,2.0,4.0,94,0.00,,,0.00,0.0,meteohub,2013-12-22 00:40:00,
2013-12-21 19:45:00,68.4,66.6,30.06,SE,134,0.0,6.0,94,0.00,,,0.00,0.0,meteohub,2013-12-22 00:45:00,
2013-12-21 19:50:00,68.5,66.7,30.06,South,173,2.0,6.0,94,0.00,,,0.00,0.0,meteohub,2013-12-22 00:50:00,
2013-12-21 19:55:00,68.7,66.9,30.06,SE,136,0.0,6.0,94,0.00,,,0.00,0.0,meteohub,2013-12-22 00:55:00,
2013-12-21 20:00:00,68.7,66.9,30.06,SSE,157,0.0,6.0,94,0.00,,,0.00,0.0,meteohub,2013-12-22 01:00:00,
2013-12-21 20:05:00,68.9,67.1,30.06,SSE,148,3.0,9.0,94,0.00,,,0.00,0.0,meteohub,2013-12-22 01:05:00,
2013-12-21 20:10:00,69.1,67.3,30.06,ESE,114,1.0,9.0,94,0.00,,,0.00,0.0,meteohub,2013-12-22 01:10:00,
2013-12-21 20:15:00,69.1,67.3,30.06,South,170,2.0,10.0,94,0.00,,,0.00,0.0,meteohub,2013-12-22 01:15:00,
2013-12-21 20:20:00,69.1,67.3,30.06,South,178,0.0,10.0,94,0.00,,,0.00,0.0,meteohub,2013-12-22 01:20:00,
2013-12-21 20:25:00,69.1,67.3,30.06,SE,126,0.0,10.0,94,0.00,,,0.00,0.0,meteohub,2013-12-22 01:25:00,
2013-12-21 20:30:00,69.3,67.5,30.06,South,185,7.0,9.0,94,0.00,,,0.00,0.0,meteohub,2013-12-22 01:30:00,
2013-12-21 20:35:00,69.3,67.5,30.06,South,179,2.0,10.0,94,0.00,,,0.00,0.0,meteohub,2013-12-22 01:35:00,
2013-12-21 20:40:00,69.3,67.5,30.06,South,169,0.0,10.0,94,0.00,,,0.00,0.0,meteohub,2013-12-22 01:40:00,
2013-12-21 20:45:00,69.3,67.5,30.06,ESE,112,1.0,10.0,94,0.00,,,0.00,0.0,meteohub,2013-12-22 01:45:00,
2013-12-21 20:50:00,69.3,67.5,30.06,SSW,196,2.0,10.0,94,0.00,,,0.00,0.0,meteohub,2013-12-22 01:50:00,
2013-12-21 20:55:00,69.3,67.5,30.06,SSE,148,7.0,12.0,94,0.00,,,0.00,0.0,meteohub,2013-12-22 01:55:00,
2013-12-21 21:00:00,69.3,67.5,30.06,South,189,3.0,12.0,94,0.00,,,0.00,0.0,meteohub,2013-12-22 02:00:00,
2013-12-21 21:05:00,69.3,67.5,30.06,SSE,156,6.0,12.0,94,0.00,,,0.00,0.0,meteohub,2013-12-22 02:05:00,
2013-12-21 21:10:00,69.3,67.5,30.06,South,188,3.0,11.0,94,0.00,,,0.00,0.0,meteohub,2013-12-22 02:10:00,
2013-12-21 21:15:00,69.4,67.6,30.06,South,182,7.0,11.0,94,0.00,,,0.00,0.0,meteohub,2013-12-22 02:15:00,
2013-12-21 21:20:00,69.4,67.6,30.06,South,191,0.0,11.0,94,0.00,,,0.00,0.0,meteohub,2013-12-22 02:20:00,
2013-12-21 21:25:00,69.4,67.6,30.06,South,179,0.0,11.0,94,0.00,,,0.00,0.0,meteohub,2013-12-22 02:25:00,
2013-12-21 21:30:00,69.4,68.0,30.06,SE,128,4.0,11.0,95,0.00,,,0.00,0.0,meteohub,2013-12-22 02:30:00,
2013-12-21 21:35:00,69.4,68.0,30.06,SSW,200,0.0,10.0,95,0.00,,,0.00,0.0,meteohub,2013-12-22 02:35:00,
2013-12-21 21:40:00,69.4,68.0,30.06,SSW,198,1.0,10.0,95,0.00,,,0.00,0.0,meteohub,2013-12-22 02:40:00,
2013-12-21 21:45:00,69.4,68.0,30.06,SSE,148,7.0,10.0,95,0.00,,,0.00,0.0,meteohub,2013-12-22 02:45:00,
2013-12-21 21:50:00,69.4,68.0,30.06,SSW,194,4.0,11.0,95,0.00,,,0.00,0.0,meteohub,2013-12-22 02:50:00,
2013-12-21 21:55:00,69.4,67.6,30.06,SSE,163,4.0,11.0,94,0.00,,,0.00,0.0,meteohub,2013-12-22 02:55:00,
2013-12-21 22:00:00,69.4,67.6,30.06,SE,125,0.0,12.0,94,0.00,,,0.00,0.0,meteohub,2013-12-22 03:00:00,
2013-12-21 22:05:00,69.3,67.5,30.06,SSE,155,0.0,12.0,94,0.00,,,0.00,0.0,meteohub,2013-12-22 03:05:00,
2013-12-21 22:10:00,69.3,67.5,30.06,SSE,156,5.0,12.0,94,0.00,,,0.00,0.0,meteohub,2013-12-22 03:10:00,
2013-12-21 22:15:00,69.3,67.8,30.06,SSE,150,3.0,12.0,95,0.00,,,0.00,0.0,meteohub,2013-12-22 03:15:00,
2013-12-21 22:20:00,69.4,68.0,30.06,SSE,167,3.0,10.0,95,0.00,,,0.00,0.0,meteohub,2013-12-22 03:20:00,
2013-12-21 22:25:00,69.4,68.0,30.06,ESE,117,0.0,7.0,95,0.00,,,0.00,0.0,meteohub,2013-12-22 03:25:00,
2013-12-21 22:30:00,69.4,68.0,30.06,ESE,123,1.0,7.0,95,0.00,,,0.00,0.0,meteohub,2013-12-22 03:30:00,
2013-12-21 22:35:00,69.3,67.8,30.06,ESE,103,1.0,9.0,95,0.00,,,0.00,0.0,meteohub,2013-12-22 03:35:00,
2013-12-21 22:40:00,69.3,67.8,30.06,SE,146,2.0,9.0,95,0.00,,,0.00,0.0,meteohub,2013-12-22 03:40:00,
2013-12-21 22:45:00,69.3,67.8,30.06,SE,143,0.0,9.0,95,0.00,,,0.00,0.0,meteohub,2013-12-22 03:45:00,
2013-12-21 22:50:00,69.3,67.8,30.06,SE,138,3.0,8.0,95,0.00,,,0.00,0.0,meteohub,2013-12-22 03:50:00,
2013-12-21 22:55:00,69.3,67.8,30.06,South,172,0.0,8.0,95,0.00,,,0.00,0.0,meteohub,2013-12-22 03:55:00,
2013-12-21 23:00:00,69.3,67.8,30.06,SSE,163,5.0,8.0,95,0.00,,,0.00,0.0,meteohub,2013-12-22 04:00:00,
2013-12-21 23:05:00,69.3,67.8,30.06,SE,130,4.0,8.0,95,0.00,,,0.00,0.0,meteohub,2013-12-22 04:05:00,
2013-12-21 23:10:00,69.3,67.8,30.06,SE,128,5.0,8.0,95,0.00,,,0.00,0.0,meteohub,2013-12-22 04:10:00,
2013-12-21 23:15:00,69.1,67.6,30.06,SSE,150,0.0,9.0,95,0.00,,,0.00,0.0,meteohub,2013-12-22 04:15:00,
2013-12-21 23:20:00,69.1,67.8,30.06,SE,146,1.0,9.0,96,0.00,,,0.00,0.0,meteohub,2013-12-22 04:20:00,
2013-12-21 23:25:00,69.3,68.0,30.06,SSE,167,7.0,9.0,96,0.00,,,0.00,0.0,meteohub,2013-12-22 04:25:00,
2013-12-21 23:30:00,69.3,68.0,30.06,ESE,115,2.0,8.0,96,0.00,,,0.00,0.0,meteohub,2013-12-22 04:30:00,
2013-12-21 23:35:00,69.3,68.0,30.06,SSE,168,1.0,9.0,96,0.00,,,0.00,0.0,meteohub,2013-12-22 04:35:00,
2013-12-21 23:40:00,69.3,68.0,30.05,SE,138,4.0,9.0,96,0.00,,,0.00,0.0,meteohub,2013-12-22 04:40:00,
2013-12-21 23:45:00,69.3,68.0,30.06,SE,142,0.0,9.0,96,0.00,,,0.00,0.0,meteohub,2013-12-22 04:45:00,
2013-12-21 23:50:00,69.3,68.0,30.06,SSE,155,4.0,7.0,96,0.00,,,0.00,0.0,meteohub,2013-12-22 04:50:00,
2013-12-21 23:55:00,69.3,68.0,30.05,SE,144,5.0,8.0,96,0.00,,,0.00,0.0,meteohub,2013-12-22 04:55:00,